International Virtual Aviation Organisation

Eastern Europe and Northern Asia MCD

 

Карточка аэропорта URKK

Внимание!
Информация на этой странице в стадии наполнения.
Если вы не увидели какой-то информации, или заметили неточность - пожалуйста сообщите нам!
Спасибо!
Команда RU-STAFF
Название аэропортаПашковский
Название аэропорта (англ.)Pashkovskiy
Превышение118 ft. (36 m.)
Координаты45°2.0820000000001', 39°10.218'
Высота перехода900m
Эшелон переходаFL050
Коды ответчика1030-1037
Зона ОрВДРостов-на-Дону РПИ (URRV)
Данные METARURKK 121300Z 07002MPS 010V120 9999 BKN020 12/08 Q1021 R23L/CLRD70 NOSIG RMK QFE763
Проноз погоды (TAF)URKK 121048Z 1212/1312 17003G08MPS 9999 SCT020CB TEMPO 1212/1221 6000 -SHRA BKN016CB PROB40 1212/1221 -TSRA TEMPO 1221/1306 1000 -SHRA BR BKN002 BKN016CB
NOTAMshow/hide NOTAM
AWOS   TABLE

Информация о ВПП

ВПП Длина ВПП (м.) Покрытие Курс ВПП Частота ILS
05L2200Асфальтобетон46 
23R2200Асфальтобетон226 
05C2400Цементобетон46 
23C3000Железобетон226111.3
05R3000Железобетон46 
23L3000Железобетон226 

Диспетчерские позиции

Позывной Наименование органа УВД Частота
URKK_TWRКраснодар-Вышка120.6
URKK_R_APPКраснодар-Круг121.3
URKK_APPКраснодар-Подход129.6
URKK_GNDКраснодар-Руление119.0



Спутниковое изображение